This is the latest recevied weather packets stored in our database for station/object KD0KHX-10. If no packets are shown the sender has not sent any weather packets the latest 10 day(s).
| Time | Temp. | Humidity | Pressure | Rain* | Wind** | Luminosity | Snow |
|---|---|---|---|---|---|---|---|
| 1777644003 | 7.22° C | 77% | 1014 hPa | 0 mm | - | - | - |
| 1777643703 | 7.22° C | 74% | 1014 hPa | 0 mm | - | - | - |
| 1777643403 | 6.67° C | 71% | 1014.1 hPa | 0 mm | - | - | - |
| 1777643103 | 6.67° C | 67% | 1014.1 hPa | 0 mm | - | - | - |
| 1777642803 | 6.11° C | 66% | 1014.2 hPa | 0 mm | - | - | - |
| 1777642503 | 5.56° C | 64% | 1014.2 hPa | 0 mm | - | - | - |
| 1777642203 | 5° C | 63% | 1014.2 hPa | 0 mm | - | - | - |
| 1777641903 | 4.44° C | 64% | 1014.2 hPa | 0 mm | - | - | - |
| 1777641738 | 4.44° C | 64% | 1014.2 hPa | 0 mm | - | - | - |
| 1777641303 | 3.89° C | 64% | 1014.2 hPa | 0 mm | - | - | - |
| 1777641138 | 3.89° C | 64% | 1014.1 hPa | 0 mm | - | - | - |
| 1777640972 | 3.33° C | 65% | 1014.2 hPa | 0 mm | - | - | - |
| 1777640403 | 3.33° C | 65% | 1014.1 hPa | 0 mm | - | - | - |
| 1777640103 | 2.78° C | 66% | 1014.1 hPa | 0 mm | - | - | - |
| 1777639803 | 2.22° C | 67% | 1014.1 hPa | 0 mm | - | - | - |
| 1777639503 | 2.22° C | 67% | 1014 hPa | 0 mm | - | - | - |
| 1777639338 | 2.22° C | 67% | 1014 hPa | 0 mm | - | - | - |
| 1777638903 | 1.67° C | 68% | 1014 hPa | 0 mm | - | - | - |
| 1777638603 | 1.11° C | 69% | 1014 hPa | 0 mm | - | - | - |
| 1777638303 | 1.11° C | 71% | 1014 hPa | 0 mm | - | - | - |
| 1777638003 | 1.11° C | 71% | 1013.9 hPa | 0 mm | - | - | - |
| 1777637703 | 1.11° C | 70% | 1014 hPa | 0 mm | - | - | - |
| 1777637537 | 1.11° C | 70% | 1014 hPa | 0 mm | - | - | - |
| 1777637103 | 1.11° C | 70% | 1014 hPa | 0 mm | - | - | - |
| 1777636803 | 1.11° C | 70% | 1013.9 hPa | 0 mm | - | - | - |
* Rain latest hour (hover to see other rain measurements)
** Current wind speed in m/s (hover to see current wind gust speed)